フルス彗星

P/2019 Y2 ( Fuls )

English version
Home page
Updated on July 8, 2020

---------------------------------------------------------------------

・ プロフィール

発見日 2019年12月21日
発見光度 18.8等
発見者 D. Carson Fuls (Mount Lemmon Survey)

・ 写真集

・ 軌道要素

Epoch 2020 Feb. 1.0 TT = JDT 2458880.5
T 2020 Jan. 31.80791 TT                                 Rudenko
q   2.1248463            (2000.0)            P               Q
n   0.15349696     Peri.   92.33254     -0.98930231     -0.11908295
a   3.4546405      Node    80.83675     +0.07466635     -0.90956619
e   0.3849298      Incl.    4.89626     +0.12532308     -0.39813138
P   6.42
From 634 observations 2019 Dec. 21-2020 June 12, mean residual 0".7.

・ 星図

・ 光度変化

        m1 = 11.0 + 5 logΔ + 15.0 log r

---------------------------------------------------------------------

軌道要素はM.P.E.C. 2020-M07に掲載されたものです。
星図はステラナビゲータ Ver.10 (アストロアーツ) で作成したものです。
光度グラフはComet for Windowsで作成したものです。

---------------------------------------------------------------------

Copyright(C) Seiichi Yoshida (comet@aerith.net). All rights reserved.